CAPE
809 909 661 545 608 534 519 505 603 727 651 589 531 658 980 680 655 489 831 1714 1295 1402 1411 1317 1006 756 618 635 734 838 846 766 717 476 488 558 533 481 255 185 222 163 334
536 666 629 503 411 446 405 584 417 629 485 539 553 618 574 564 516 450 848 1518 1637 1462 1298 1446 1231 1238 954 559 553 630 1010 1236 950 909 762 961 848 860 580 743 702 277 226
308 659 518 458 646 542 395 306 374 474 276 195 340 498 346 302 238 270 584 633 1278 1618 1329 1266 1335 1366 1391 1105 1055 824 442 406 507 588 594 352 559 741 791 920 741 676 551
583 687 402 662 743 687 412 410 279 337 153 96 90 141 251 225 125 57 105 313 719 1075 1394 1389 1413 1166 1277 1118 1137 1030 896 861 1022 948 635 662 348 442 979 539 782 764 583
902 521 588 849 755 735 582 450 357 230 141 436 234 67 143 234 144 106 30 48 194 480 609 774 1050 1088 1211 1315 1333 1295 1170 1120 773 698 740 502 513 442 547 483 331 384 331
937 586 522 625 519 726 522 577 454 471 261 6 23 22 48 102 164 112 127 77 29 113 232 376 533 602 725 1180 1318 1281 1043 1040 1220 1005 825 428 345 291 196 264 269 242 250
1030 663 338 407 235 556 464 480 415 204 7 0 0 1 6 12 35 104 125 138 68 7 8 37 140 267 182 403 783 738 914 1206 1109 985 738 365 386 226 154 123 132 118 165
942 824 460 523 122 576 718 610 524 102 26 0 0 0 0 1 4 2 0 64 100 81 69 15 29 52 59 84 286 551 756 719 926 1030 927 591 253 112 69 20 0 0 0
748 983 826 534 487 555 723 607 571 298 63 0 0 0 0 0 0 0 0 0 18 51 60 49 74 46 26 41 115 311 241 103 127 741 782 323 61 8 0 0 0 0 0
619 900 1078 1051 813 901 917 668 660 348 77 0 0 0 0 0 0 0 0 0 0 16 43 45 60 60 33 73 74 202 35 0 259 788 524 59 0 0 0 0 0 0 0
635 892 1119 1125 858 861 874 738 747 445 159 0 0 0 0 0 0 0 0 0 0 0 3 9 28 74 100 108 109 175 5 0 123 273 81 0 0 0 0 0 0 0 0
308 781 1182 1186 1029 868 843 719 688 632 243 294 5 0 0 0 0 0 0 0 0 0 0 13 17 78 140 132 151 178 34 0 0 0 0 0 0 0 0 0 0 0 0
35 343 1037 1071 1158 1049 819 784 752 696 613 682 545 37 0 0 0 0 0 0 1 6 17 0 0 59 113 112 110 186 46 3 0 0 0 0 0 0 0 0 0 0 0
93 62 364 1162 1193 1126 1083 900 880 642 836 768 556 500 69 0 0 0 0 0 12 5 22 60 12 3 15 54 30 41 8 5 0 0 0 0 0 0 0 0 0 0 0
89 173 199 413 799 1017 1252 1182 1136 748 920 820 786 637 498 81 2 16 2 0 0 6 2 11 45 29 14 7 22 14 15 0 0 0 0 0 0 0 0 0 0 0 0
35 134 155 464 718 917 1159 1341 1330 1097 872 988 1054 917 462 473 331 51 10 4 0 0 0 0 0 13 14 6 3 0 0 0 0 0 0 0 0 0 0 0 0 0 0
5 12 218 438 869 1073 1155 1189 1266 1368 1133 1073 1121 1190 1174 1006 711 391 79 0 0 0 0 0 0 0 0 17 11 4 0 0 0 0 0 0 0 0 0 0 0 0 0
89 135 64 325 703 1076 1245 1234 1184 1227 1323 1225 1175 1277 1364 1377 1201 891 532 11 0 0 0 0 0 0 2 4 13 10 9 0 0 0 0 0 0 0 0 0 0 0 0
167 123 313 573 803 915 1012 1196 1207 1237 1225 1244 1189 1171 1188 1432 1416 1322 1205 904 229 9 0 0 0 0 0 0 0 0 0 0 0 0 0 0 0 0 0 0 0 0 0
514 405 327 359 515 755 1287 1518 1503 1472 1333 1277 1289 1418 1427 1232 1156 1293 985 1058 1002 779 317 36 0 0 3 10 2 0 0 0 0 0 0 0 1 0 0 0 2 0 0
519 455 336 337 581 601 706 1048 1657 1613 1507 1362 1329 1357 1491 1479 1150 1198 1101 1023 1063 990 983 824 740 388 251 93 40 8 3 0 0 3 4 9 11 5 18 16 4 0 0
517 621 534 297 285 644 719 667 896 1353 1501 1504 1399 1462 1538 1496 1440 1357 1273 1505 1655 1094 892 877 781 709 548 340 125 83 26 0 0 0 0 0 12 24 40 15 0 0 4
997 705 771 764 556 559 653 697 847 1075 1143 1168 1244 1346 1418 1541 1530 1604 1501 1325 1295 1313 1486 1626 1345 1014 970 604 266 219 123 66 36 13 12 4 1 68 48 21 11 1 46
1472 1230 1018 1084 1080 1052 1041 844 784 1045 1247 1414 1479 1548 1626 1673 1747 1831 1841 1918 1765 1618 1393 1265 1428 1612 1564 1217 464 212 170 108 55 38 6 13 0 21 0 54 18 0 40
1768 1757 1603 1457 1467 1511 1268 1138 1117 1342 1455 1584 1804 1849 1879 1927 1972 1901 2069 2169 2206 2216 1925 1672 1560 1591 1451 1202 743 310 143 36 24 10 1 6 2 2 1 51 20 10 28
1859 2041 2189 2216 1929 1839 1815 1616 1355 1625 1716 1854 2004 2125 2097 2127 2073 2025 2166 2299 2437 2471 2411 2303 1846 1511 1270 1299 836 534 485 175 24 5 1 2 2 1 9 12 5 0 4
CIN
-54 -48 -69 -70 -71 -78 -63 -75 -78 -64 -53 -62 -72 -78 -63 -74 -83 -109 -65 -0 -14 -0 -0 -0 -15 -32 -34 -27 -15 -3 -0 -0 -3 -19 -11 -10 -17 -14 -25 -40 -38 -42 -2
-68 -70 -65 -74 -76 -70 -73 -69 -51 -51 -59 -70 -59 -57 -54 -74 -83 -101 -65 -2 -1 -1 -0 -0 -0 -0 -2 -21 -12 -10 -0 -0 -0 -0 -0 -0 -0 -0 -1 -0 -0 -4 -7
-80 -70 -74 -80 -55 -65 -70 -64 -54 -40 -47 -51 -39 -58 -60 -79 -100 -129 -84 -61 -23 -0 -2 -2 -0 -0 -0 -0 -0 -0 -6 -8 -2 -1 -3 -13 -6 -1 -0 -0 -0 -0 -1
-72 -60 -75 -59 -63 -61 -67 -56 -49 -33 -45 -53 -69 -76 -81 -100 -124 -175 -159 -106 -65 -31 -7 -2 -1 -0 -0 -0 -0 -1 -1 -2 -0 -0 -4 -1 -12 -10 -0 -4 -1 -0 -2
-47 -64 -65 -58 -57 -57 -48 -50 -49 -54 -44 -44 -35 -84 -101 -98 -98 -119 -99 -132 -120 -74 -61 -24 -12 -6 -0 -0 -0 -1 -2 -1 -3 -3 -1 -5 -7 -11 -3 -5 -19 -9 -12
-53 -55 -75 -72 -64 -59 -53 -44 -39 -49 -61 -32 -37 -61 -81 -128 -107 -117 -91 -137 -122 -122 -95 -57 -41 -42 -24 -4 -0 -0 -3 -1 -0 -1 -1 -6 -19 -18 -19 -27 -16 -34 -45
-50 -58 -59 -74 -89 -49 -44 -37 -39 -37 -25 -0 -0 -11 -76 -105 -87 -125 -133 -99 -112 -109 -209 -167 -110 -83 -84 -42 -14 -7 -2 -0 -0 -2 -3 -10 -13 -14 -28 -50 -54 -53 -34
-49 -45 -47 -52 -72 -46 -37 -37 -28 -52 -48 -0 -0 -0 -0 -7 -52 -55 -0 -146 -101 -123 -119 -225 -207 -198 -236 -162 -67 -20 -8 -5 -0 -0 -0 -1 -26 -46 -59 -142 -0 -0 -0
-45 -42 -38 -48 -53 -56 -36 -35 -27 -32 -24 -0 -0 -0 -0 -0 -0 -0 -0 -0 -87 -171 -143 -176 -188 -241 -299 -252 -127 -44 -45 -103 -93 -8 -2 -25 -88 -77 -0 -0 -0 -0 -0
-43 -36 -30 -39 -42 -42 -39 -40 -36 -45 -51 -0 -0 -0 -0 -0 -0 -0 -0 -0 -0 -230 -191 -201 -202 -223 -270 -217 -209 -111 -232 -0 -67 -3 -14 -127 -0 -0 -0 -0 -0 -0 -0
-49 -32 -33 -35 -36 -40 -38 -44 -39 -49 -63 -0 -0 -0 -0 -0 -0 -0 -0 -0 -0 -0 -103 -257 -246 -216 -223 -239 -241 -199 -73 -0 -178 -86 -170 -0 -0 -0 -0 -0 -0 -0 -0
-98 -49 -33 -31 -33 -36 -34 -44 -44 -40 -62 -61 -55 -0 -0 -0 -0 -0 -0 -0 -0 -0 -0 -322 -368 -314 -290 -291 -278 -248 -316 -0 -0 -0 -0 -0 -0 -0 -0 -0 -0 -0 -0
-239 -120 -42 -33 -33 -34 -32 -38 -37 -44 -50 -38 -49 -209 -0 -0 -0 -0 -0 -0 -19 -136 -373 -0 -0 -407 -341 -328 -284 -231 -317 -256 -0 -0 -0 -0 -0 -0 -0 -0 -0 -0 -0
-169 -187 -102 -46 -37 -36 -32 -38 -41 -50 -43 -50 -93 -130 -259 -0 -0 -0 -0 -0 -244 -244 -362 -287 -430 -211 -422 -359 -358 -308 -327 -360 -0 -0 -0 -0 -0 -0 -0 -0 -0 -0 -0
-202 -154 -135 -99 -64 -54 -44 -37 -34 -51 -45 -58 -100 -143 -180 -307 -63 -442 -63 -0 -20 -323 -130 -303 -283 -363 -411 -463 -422 -422 -401 -0 -0 -0 -0 -0 -0 -0 -0 -0 -0 -0 -0
-277 -200 -164 -102 -69 -61 -55 -51 -42 -47 -62 -71 -89 -115 -206 -222 -273 -416 -438 -262 -0 -0 -0 -0 -0 -192 -372 -385 -427 -99 -0 -0 -0 -0 -0 -0 -0 -0 -0 -0 -0 -0 -0
-262 -81 -186 -117 -72 -69 -70 -61 -56 -50 -59 -82 -91 -86 -107 -144 -207 -284 -379 -0 -0 -0 -0 -0 -0 -0 -0 -352 -365 -367 -0 -0 -0 -0 -0 -0 -0 -0 -0 -0 -0 -0 -0
-314 -256 -258 -158 -103 -88 -85 -82 -72 -81 -74 -90 -111 -93 -103 -110 -138 -187 -248 -359 -0 -0 -0 -0 -0 -0 -439 -473 -417 -409 -376 -0 -0 -0 -0 -0 -0 -0 -0 -0 -0 -0 -0
-318 -302 -230 -176 -137 -128 -123 -117 -108 -99 -104 -100 -115 -130 -139 -106 -111 -124 -149 -183 -293 -77 -0 -0 -0 -0 -0 -0 -0 -0 -0 -0 -0 -0 -0 -0 -0 -0 -0 -0 -0 -0 -0
-288 -288 -299 -261 -222 -180 -131 -109 -108 -108 -125 -122 -122 -121 -127 -144 -153 -147 -177 -167 -173 -196 -298 -182 -0 -0 -432 -470 -239 -0 -0 -0 -0 -107 -45 -0 -38 -47 -0 -0 -71 -0 -0
-362 -346 -323 -343 -268 -242 -222 -160 -114 -115 -114 -121 -146 -158 -149 -161 -208 -181 -182 -214 -193 -182 -183 -203 -223 -349 -365 -406 -399 -342 -336 -0 -0 -333 -302 -204 -219 -174 -171 -133 -79 -0 -0
-441 -379 -397 -407 -404 -318 -285 -284 -222 -146 -133 -130 -155 -178 -191 -191 -208 -213 -217 -174 -155 -210 -214 -203 -229 -238 -308 -330 -367 -334 -387 -6 -0 -3 -0 -17 -260 -141 -125 -118 -0 -0 -58
-394 -437 -410 -401 -427 -412 -377 -353 -308 -244 -235 -249 -244 -231 -233 -231 -237 -226 -246 -270 -275 -245 -173 -93 -152 -240 -245 -298 -323 -324 -351 -360 -330 -348 -232 -180 -71 -109 -92 -77 -90 -48 -26
-364 -393 -419 -411 -404 -418 -416 -418 -401 -334 -296 -288 -295 -283 -270 -264 -253 -242 -227 -213 -251 -259 -257 -214 -156 -156 -84 -158 -279 -347 -365 -386 -389 -373 -279 -153 -0 -87 -51 -68 -77 -9 -33
-351 -363 -394 -407 -409 -409 -444 -448 -415 -372 -355 -346 -313 -307 -311 -309 -284 -245 -199 -195 -203 -210 -246 -252 -218 -169 -144 -156 -232 -289 -351 -380 -336 -317 -0 -241 -0 -0 -58 -22 -18 -11 -28
-351 -328 -322 -326 -376 -377 -389 -415 -431 -368 -374 -364 -327 -315 -317 -307 -279 -253 -212 -181 -186 -166 -153 -200 -284 -288 -255 -198 -268 -279 -214 -215 -239 -80 -0 -0 -0 -36 -0 -5 -9 -0 -55
Wind_Speed
19 19 18 17 16 15 16 17 17 16 17 17 17 19 20 20 20 21 21 22 22 21 21 21 21 20 20 20 19 19 18 18 17 17 16 15 15 14 14 14 13 12 11
19 19 19 17 16 16 16 16 17 16 17 16 16 19 20 20 20 21 20 21 21 21 21 20 20 19 19 19 18 18 17 17 16 15 15 14 14 13 13 14 14 13 13
19 19 18 18 17 16 15 15 16 17 16 16 16 20 20 21 22 21 21 21 21 21 20 19 19 18 18 18 17 17 16 16 15 15 14 14 13 13 12 13 13 12 10
19 18 19 18 18 17 16 16 17 19 19 18 16 20 21 21 21 21 21 20 20 20 19 19 18 18 18 17 17 16 15 15 14 14 13 12 12 12 11 12 12 12 11
19 19 19 18 18 17 17 17 17 18 18 18 17 20 21 21 20 20 20 20 19 19 18 18 18 18 17 16 15 15 14 13 13 13 12 12 12 12 11 12 12 11 11
20 19 18 18 18 18 18 18 17 17 17 17 19 18 20 20 20 20 20 19 19 18 17 17 17 18 18 16 15 15 14 13 13 12 12 12 12 12 12 11 10 11 12
20 19 18 18 18 18 18 18 18 17 17 18 23 19 19 17 20 19 19 19 18 18 17 17 17 18 17 16 14 14 13 12 12 11 11 11 10 10 11 10 10 9 9
20 19 18 18 18 18 17 17 18 18 18 19 21 21 21 19 20 19 18 18 18 17 16 17 17 17 16 15 14 13 13 12 12 12 11 11 12 12 13 12 12 12 19
20 19 17 18 18 18 17 18 18 19 19 20 21 21 22 21 19 18 18 18 18 18 17 17 16 16 15 15 14 13 12 12 12 13 13 13 14 15 15 16 16 17 17
21 20 18 18 17 18 19 18 18 18 18 20 20 20 19 19 19 18 17 19 18 18 19 18 17 16 15 15 14 14 13 13 14 14 14 14 15 15 15 15 15 16 17
22 20 19 18 17 17 18 18 18 18 19 20 19 19 19 18 19 18 18 18 17 17 18 18 17 16 15 15 14 14 14 14 15 15 14 14 14 14 14 14 13 14 15
23 22 20 20 18 17 18 18 18 18 20 20 19 20 20 19 18 18 17 16 16 16 17 18 17 16 15 14 14 13 13 13 13 13 13 12 12 12 12 12 11 11 11
24 24 21 20 19 17 18 18 17 19 19 19 20 20 20 20 18 18 17 16 16 15 14 16 16 15 13 12 11 11 10 10 10 10 10 9 9 9 8 8 8 9 9
26 25 22 19 20 18 17 17 17 18 18 19 20 20 19 19 17 17 16 15 14 13 13 12 11 13 12 11 9 8 7 7 7 6 6 6 5 5 5 5 6 8 10
29 25 22 20 19 18 18 17 17 18 18 19 20 20 20 18 17 16 15 14 14 12 10 9 8 7 8 8 8 6 5 5 5 3 3 3 3 2 2 1 2 5 7
27 24 21 19 18 18 18 18 18 17 18 20 20 19 20 19 18 18 17 15 13 11 9 6 5 4 3 3 6 6 6 4 5 5 5 4 4 3 2 2 4 6 8
25 22 19 18 16 19 16 17 18 18 18 20 20 20 21 19 20 20 20 18 15 9 9 6 2 5 3 2 3 5 6 7 7 8 8 7 7 7 7 7 7 5 8
23 19 15 16 16 18 17 18 19 18 20 21 22 21 24 21 23 22 20 18 14 10 6 10 5 5 6 6 7 7 8 9 10 10 10 11 11 10 10 10 8 6 5
29 25 23 23 22 21 19 19 18 18 20 22 24 23 26 24 26 24 21 18 14 11 11 11 13 9 9 10 11 11 12 13 13 13 13 13 14 12 11 11 11 10 6
31 29 26 26 27 26 23 18 20 21 23 24 25 25 26 25 26 22 21 18 13 12 11 13 15 16 14 14 14 16 16 16 17 16 16 16 14 14 13 13 12 12 9
28 25 27 26 26 29 27 25 26 27 27 27 26 27 27 25 23 20 15 15 11 14 13 14 16 15 16 17 19 19 20 20 19 19 20 19 17 15 15 13 19 11 13
19 18 24 27 29 29 29 30 31 31 30 29 28 27 25 23 21 19 18 20 13 12 13 13 16 17 19 19 21 21 23 24 26 21 23 24 21 19 17 14 16 18 11
16 22 27 28 30 30 31 32 33 33 31 29 27 27 24 19 17 16 15 19 21 20 20 18 20 21 23 23 24 25 26 26 28 27 24 26 24 21 19 17 15 15 16
22 24 26 27 27 28 27 30 33 32 32 29 25 23 24 22 14 12 13 15 16 18 18 20 23 26 24 24 24 25 27 28 29 29 26 28 21 21 17 20 16 10 8
22 24 27 27 28 27 25 25 27 29 30 29 25 21 19 20 16 13 15 16 18 18 18 19 21 22 22 22 23 27 28 29 29 29 24 27 22 16 14 10 9 5 4
27 22 24 23 21 21 17 19 21 20 28 25 21 21 21 19 14 14 15 16 18 17 17 17 17 18 19 20 21 23 27 28 28 30 24 20 14 15 16 6 4 4 3
Wind_Direction
152 149 140 135 144 161 157 150 153 145 110 156 166 159 145 136 125 129 131 140 136 133 136 133 137 139 135 133 134 133 137 138 133 134 134 137 144 157 211 223 225 195 166
143 143 134 139 153 160 153 149 143 161 160 170 189 167 149 141 132 137 140 148 152 145 147 146 143 144 145 151 147 148 150 145 151 156 162 156 157 156 181 201 218 220 221
156 143 137 135 148 154 157 150 142 150 177 187 176 147 141 136 139 143 152 153 153 155 153 154 156 152 153 147 153 157 160 161 166 166 168 168 164 165 172 183 191 186 179
154 145 139 137 143 148 146 139 141 144 155 163 172 156 152 151 155 153 150 152 154 153 153 157 160 161 162 163 158 157 158 161 158 156 153 151 153 163 174 176 186 201 194
154 152 150 136 140 140 143 145 147 153 156 152 175 167 159 160 151 149 155 160 157 153 156 157 156 158 163 161 155 155 157 153 158 162 166 169 169 174 178 182 191 196 202
151 148 150 144 148 144 138 145 160 157 153 151 155 170 169 170 162 155 150 151 154 155 157 160 158 159 161 165 168 169 168 165 162 163 172 174 180 184 188 189 184 202 211
154 152 157 153 147 149 139 143 149 154 151 144 137 159 167 184 164 161 164 158 156 161 164 160 160 167 165 166 161 155 154 152 146 142 145 145 148 149 165 165 146 149 115
157 153 157 155 148 151 153 143 142 144 147 151 145 145 143 152 162 171 163 160 164 160 159 160 161 165 160 154 158 155 158 159 162 153 149 129 108 93 96 103 105 96 22
159 156 154 152 153 160 157 144 137 137 138 143 147 140 137 133 141 165 163 164 169 171 170 165 160 159 158 159 159 151 144 149 152 148 123 98 82 73 73 63 52 46 39
165 164 161 157 155 159 165 158 146 147 134 137 144 155 152 137 129 135 166 165 167 167 170 171 168 161 157 158 151 141 130 128 124 120 113 104 97 90 84 77 64 52 48
172 170 167 165 153 152 160 161 152 145 143 144 142 149 155 154 146 129 132 146 165 166 169 168 167 165 159 150 143 141 133 120 116 112 107 101 96 90 86 83 80 69 50
179 178 173 172 164 158 159 155 155 153 152 153 154 154 150 137 136 132 134 140 152 162 165 172 174 169 161 149 144 138 133 128 123 118 111 109 101 96 89 84 79 71 63
182 183 176 175 173 163 162 162 156 158 156 158 161 164 164 163 152 146 141 134 142 154 148 167 173 168 164 155 150 142 135 131 128 122 111 106 103 95 93 88 68 53 51
187 185 179 173 176 170 165 164 162 163 164 164 169 170 169 165 158 152 150 149 160 155 151 157 154 175 172 167 163 152 137 142 137 130 118 107 112 99 71 55 42 28 24
195 187 182 179 177 174 171 167 167 172 170 169 174 175 173 170 165 162 159 152 157 170 173 161 154 146 169 173 181 167 164 163 168 160 159 161 155 127 128 94 47 19 14
191 189 184 180 177 179 177 174 176 173 174 180 180 177 180 183 185 184 185 182 177 180 194 143 151 141 126 176 204 208 211 216 217 219 226 232 240 256 255 306 328 351 356
191 190 184 182 178 183 179 181 183 185 184 188 188 189 193 190 197 199 200 199 197 181 208 213 44 21 5 300 276 256 250 248 253 245 247 251 259 262 281 295 310 322 346
191 190 188 187 186 186 184 186 190 190 193 196 198 197 204 202 209 210 207 209 209 206 225 248 282 308 312 321 303 290 279 272 275 275 262 261 264 273 280 284 283 289 326
196 194 193 194 193 195 195 195 195 195 196 200 205 205 210 209 217 216 217 220 223 231 240 256 265 307 301 317 309 306 293 281 286 280 276 272 274 277 281 274 260 270 304
200 199 199 201 203 204 201 197 198 199 201 203 207 210 213 213 218 219 223 229 238 249 257 265 265 269 296 306 304 300 292 297 283 286 284 285 282 279 291 311 292 279 298
200 200 204 205 206 208 207 205 205 207 208 210 211 214 216 216 218 221 226 235 251 251 261 270 273 283 294 302 298 305 296 299 290 287 288 288 285 285 298 311 307 271 296
202 203 202 205 208 209 209 209 210 212 213 213 217 218 218 219 221 226 230 233 244 257 268 285 286 287 291 304 308 302 303 304 300 302 290 285 283 281 290 301 311 278 282
202 200 203 204 207 209 210 211 211 213 215 215 217 220 221 221 225 231 239 241 246 252 258 278 282 286 290 303 305 305 303 301 296 306 297 291 287 278 290 307 302 288 276
197 199 202 203 204 207 206 209 212 213 217 217 216 219 222 225 232 248 259 262 267 267 278 279 275 276 286 296 304 306 307 307 307 306 302 291 294 265 281 303 292 266 250
196 199 202 203 204 207 205 206 207 211 215 218 218 220 224 230 239 255 264 275 277 283 298 282 280 282 286 293 306 318 314 311 306 304 303 299 310 306 305 293 291 246 243
201 198 201 202 204 208 209 209 207 210 217 219 223 227 231 239 260 271 274 280 278 294 301 303 309 297 294 298 306 310 311 309 308 317 315 304 320 318 323 327 302 274 175